Weather Service Report


263 
ASHW40 PHFO 242343
RWRHI 

WEATHER ROUNDUP FOR HAWAII
NATIONAL WEATHER SERVICE HONOLULU HI
100 PM HST SUN MAY 24 2015

THIS IS AN AUTOMATED REPORT THAT HAS NOT BEEN QUALITY CONTROLLED.

NOTE..."FAIR" INDICATES FEW OR NO CLOUDS BELOW 12,000 FEET WITH NO
SIGNIFICANT WEATHER AND/OR OBSTRUCTIONS TO VISIBILITY.

* - THESE SITES REPORT LIMITED FIELDS

HIZ001>004-250000-
KAUAI-NIIHAU-
  
CITY           SKY/WX    TMP DP  RH WIND       PRES   REMARKS
LIHUE APT      CLOUDY    75  57  53 NE16      30.09F                  
PORT ALLEN*    NOT AVBL                                               
POIPU*           N/A     77 N/A N/A NE7G13      N/A                   
PRINCEVILLE*     N/A     77 N/A N/A MISG        N/A                   
KOKOLE POINT*  NOT AVBL                                               
MOLOAA DAIRY*  NOT AVBL                                               
WAIMEA HTS*      N/A     88  55  33 NE5G12      N/A                   
PUU OPAE*        N/A     72  54  53 E8G15       N/A                   
PUU LUA*       NOT AVBL                                               
MAKAHA RIDGE*    N/A     73  59  60 NE5G10      N/A                   
$$

HIZ005>011-250000-
OAHU-
  
CITY           SKY/WX    TMP DP  RH WIND       PRES   REMARKS
HONOLULU       PTSUNNY   80  58  46 N12G21    30.04F                  
KALAELOA       CLOUDY    79  57  46 N9G18     30.05F                  
KANEOHE MCB    MOSUNNY   78  61  55 N16       30.03F                  
WHEELER FIELD  PTSUNNY   74  58  56 N13       30.05F                  
BELLOWS*         N/A    N/A N/A N/A N10G18      N/A                   
KAHUKU*          N/A    N/A N/A N/A N5G14       N/A                   
WHEELER*       NOT AVBL                                               
WAIANAE HARBOR NOT AVBL                                               
DILLINGHAM*      N/A     81  63  54 MISG        N/A                   
KAHUKU TRN*      N/A     64  52  63 NE9G18      N/A                   
KAWAILOA*        N/A     70  59  68 N9G18       N/A                   
KII*             N/A     75  63  64 N14         N/A                   
MAKUA RANGE*     N/A     73  59  60 NE12G26     N/A                   
OAHU FOREST NW   N/A    N/A N/A N/A CALM        N/A                   
SCHOFIELD BRK*   N/A     57  45  62 MISG        N/A                   
SCHOFIELD S*   NOT AVBL                                               
WAIANAE VLY*     N/A     79  68  69 MISG        N/A                   
KUAOKALA*        N/A     70  59  68 N24G30      N/A                   
HONOULIUULI*   NOT AVBL                                               
MOKUOLOE IS*     N/A    N/A N/A N/A MISG        N/A                   
PALEHUA*         N/A     68  55  64 NE5G14      N/A                   
WAIAWA PHB*    NOT AVBL                                               
$$

HIZ012>013-250000-
MOLOKAI-
  
CITY           SKY/WX    TMP DP  RH WIND       PRES   REMARKS
MOLOKAI AIRPT  MOSUNNY   76  60  57 N15G24    30.06F                  
KALAUPAPA      NOT AVBL                                               
MAKAPULAPAI*     N/A     79  59  50 NE13G20     N/A                   
MOLOKAI 1*       N/A     68  63  83 N5G13       N/A                   
PUU ALII*        N/A     55  55 100 CALM        N/A                   
$$

HIZ016-250000-
KAHOOLAWE-
  
CITY           SKY/WX    TMP DP  RH WIND       PRES   REMARKS
KAHOOLAWE*       N/A     73 N/A N/A N16G26      N/A                   
HAKIOAWA*        N/A     74  59  58 MISG      30.44S                  
HONOKANAIA*      N/A     83  60  45 NW12G26   30.04F                  
KANELOA*         N/A     79  59  50 NE18G32   30.09                   
KEALIALALO*      N/A     79  59  50 NE17G26   30.01F                  
LUA MAKIKA*    NOT AVBL                                               
$$

HIZ014>015-250000-
LANAI-
  
CITY           SKY/WX    TMP DP  RH WIND       PRES   REMARKS
LANAI CITY     PTSUNNY   73  59  61 NE21      30.06F                  
LANAI 1*         N/A     64  48  55 E15G23      N/A                   
$$

HIZ017>028-250000-
MAUI-
  
CITY           SKY/WX    TMP DP  RH WIND       PRES   REMARKS
KAHULUI        MOSUNNY   80  62  54 N12       30.06F                  
KAPALUA-W MAUI MOSUNNY   77  59  53 N18G26    30.06                   
HANA AIRPORT   CLOUDY    73  59  60 N8        30.07F                  
HANA*            N/A     73 N/A N/A NW8         N/A                   
HALEAKALA SUMM   N/A     54  21  28 N12G24      N/A                   
MAALAEA BAY*   NOT AVBL                                               
HALEAKALA*     NOT AVBL                                               
KAUPO GAP*       N/A     63  59  88 S3G12       N/A                   
KULA 1*          N/A     63  51  66 NW5         N/A                   
$$

HIZ023>026-250000-
BIG ISLAND OF HAWAII COAST AND LOWER SLOPES-
  
CITY           SKY/WX    TMP DP  RH WIND       PRES   REMARKS
KAILUA KONA    SUNNY     84  64  50 NW17      29.98F                  
HILO           PTSUNNY   77  64  64 N13       30.03F                  
HONOKAA*       NOT AVBL                                               
KAWAIHAE MWT*    N/A     82 N/A N/A W12         N/A                   
KAWAIHAE*        N/A     81 N/A N/A W12         N/A                   
SOUTH POINT*     N/A     70 N/A N/A E7          N/A                   
UPOLU AIRPORT*   N/A    N/A N/A N/A NE16G22     N/A                   
KAMUELA*       CLOUDY    73  59  60 NE16      30.09F                  
HAKALAU*         N/A     55  54  97 NE3         N/A                   
KALOKO-HONOKO*   N/A     84  63  48 W10       29.97F                  
PALI 2*          N/A     66  61  82 S6G12       N/A                   
KEALAKOMO*       N/A     90  68  48 VRB17G26    N/A  HX  93           
KAUPULEHU*       N/A     79  61  53 NW9G18      N/A                   
KAPAPALA*        N/A     68  65  89 W3          N/A                   
LOWER KAHUKU*    N/A     63  63 100 S2          N/A                   
PUHE CS*         N/A     84  63  48 W8G15       N/A                   
PUHO CS*         N/A     82  64  54 W3G10       N/A                   
PTA KEAMUKU*     N/A     72  57  60 CALM        N/A                   
WAIKOLOA*        N/A    N/A N/A N/A NW7G18      N/A                   
$$

HIZ027>028-250000-
BIG ISLAND OF HAWAII INTERIOR AND SUMMMITS-
  
CITY           SKY/WX    TMP DP  RH WIND       PRES   REMARKS
BRADSHAW FIELD SUNNY     68  49  51 W10G17    30.28F                  
MK VISITOR CEN NOT AVBL                                               
MAUNA KEA*       N/A     52  18  25 NW3         N/A                   
MAUNA LOA*       N/A    N/A N/A N/A MISG        N/A                   
MAUNA LOA 1*   NOT AVBL                                               
PTA KIPUKA*      N/A     68  54  60 NW6G15      N/A                   
PTA RANGE 17*    N/A     46  34  61 NW9G17      N/A                   
PTA WEST*        N/A     70  55  60 NW8G17      N/A                   
NENE CABIN*      N/A     54 N/A N/A S6G12       N/A                   
AHUMOA*          N/A     64  55  73 SW7G15      N/A                   
PTA PORTABLE*  NOT AVBL                                               
PUU MALI*        N/A     55  54  94 N6          N/A                   
$$

HIC003-250000-
NORTHWEST ISLANDS-
  
CITY           SKY/WX    TMP DP  RH WIND       PRES   REMARKS
MIDWAY ISLAND  SUNNY    N/A N/A N/A SE16      30.30F                  
MIDWAY NOS*    NOT AVBL                                               
FRENCH FRIGATE NOT AVBL                                               
$$

PHZ110>124-180-250000-
BUOY REPORTS
  
STATION/POSITION TIME  TEMP    WIND        PRES    WAVE   SWELL
                       AIR SEA DIR/SP/G            HT/PER HT/DIR
                 (UTC) (F)     (DEG/KT/KT) (MB)    (FT/S) (FT/D)
BUOY 51001       NOT AVBL
BUOY 51101       2300   70 76   60/ 14/ 17 1020.8F   7/16   5/320
BUOY 51100       NOT AVBL
BUOY 51002       2300   78 79   40/  8/ 10 1015.8F   7/14   7/180
BUOY 51003       2300   76 79   50/ 14/ 17 1017.4F   7/15   7
BUOY 51004       2232   77 80   30/ 12/ 16 1015.1F   6/10   5/340
BARBERS PT BUOY  NOT AVBL
WAIMEA BAY BUOY  2300      77                N/A     7/11   3/ 10
KAILUA BAY BUOY  2300      77                N/A     5/10   3/ 20
LANAI BUOY       NOT AVBL
BARBERS PT 2     2300      77                N/A     4/13   3/200
PAUWELA MAUI     2300      78                N/A     6/10   3
HILO             2300      77                N/A     7/11   3/ 10
KANEOHE BAY BUOY 2300      77                N/A     6/ 9   3/ 20
HANALEI KAUAI    2300      78                N/A     7/11   3/360
KAHULUI HARBOR   2300   73 78   20/ 13/ 15 1017.1F
HONOLULU HARBOR  2300   75 77   20/  8/ 12 1017.1F
KILO NALU        NOT AVBL
HILO HARBOR      2300   72 76  350/ 17/ 20 1016.2F
MOKUOLOE         2300   74 78   20/ 11/ 14 1018.1S
NAWILIWILI       2300   74 78   40/ 14/ 17 1018.1F
WHOTS BUOY       NOT AVBL
BUOY 51028       NOT AVBL
$$

......................KEY........................................
  SKY/WX - SKY CONDITIONS/PRESENT WEATHER
  TMP    - TEMPERATURE IN FAHRENHEIT
  DWPT   - DEWPOINT IN FAHRENHEIT
  RH     - RELATIVE HUMIDITY IN PERCENT
  WIND   - DIRECTION AND SPEED /MPH FOR ISLANDS...KTS FOR BUOYS/
  PRES   - MEAN SEA LEVEL PRESSURE IN INCHES OF HG
  VSB    - VISIBILITY IN MILES
  HX     - HEAT INDEX
  WCI    - WIND CHILL INDEX
  VRB    - VARIABLE WIND DIRECTION
  N/A    - NOT AVAILABLE

Return to Home page


Western Regional Climate Center, wrcc@dri.edu